User: anonymous   Login
Location: Unspecified
(20.0000°S, 0.0000°E)
Time: 12:53:49
(UTC+00:00)
Language:

TIGRISAT - Orbit

View from above orbital plane
View from above orbital plane
View from above satellite
View from above satellite

Ground track
Ground track

The orbit data is extracted from the following two-line orbital elements,

1 40043U 14033AK  19199.14869877  .00000071  00000-0  17951-4 0  9996
2 40043  97.7540  65.7257 0060150   3.2741 356.8850 14.74275282272947
Epoch (UTC): 18 July 2019 03:34:07
Eccentricity: 0.0060150
inclination: 97.7540°
perigee height: 605 km
apogee height: 690 km
right ascension of ascending node: 65.7257°
argument of perigee: 3.2741°
revolutions per day: 14.74275282
mean anomaly at epoch: 356.8850°
orbit number at epoch: 27294

The dashed part of the orbit path shows where the satellite is in the earth's shadow,  

DLR